GAOFEN 12 04

导读

高分十二号04星(GAOFEN 12 04)是中国于2023年8月20日8时成功发射的遥感卫星,隶属于中国高分辨率对地观测系统,主要用于国土普查、城市规划、土地确权、路网设计、农作物估产和防灾减灾等领域,可为“一带一路”建设等提供信息服务,进一步提升我国对地观测能力。

基本信息
目录编号:
57654
目录名称:
GAOFEN 12 04
国际标识:
2023-123A
轨道中心:
EARTH
卫星名称:
GAOFEN 12 04
卫星全名:
--
卫星状态:
在轨 (已飞行1118 天)
发射日期:
2023-08-20 UTC
国别 :
中国 (CN)
星等 :
--
轨道信息
数据来源 国际轨道数据
星历时间: 2026-09-10T20:52:07+0800
13小时前
查看轨道信息
半长轴: 7007.906km
偏心率: 0.0002132
轨道倾角: 97.907°
近地点辐角 164.938°
升交点赤经 170.252°
平近点角 195.190°
近地点: 628.274km
远地点: 631.264km
周期: 97.307分钟
每日圈数: 14.798591
详细信息
使用方式:
暂无
2D轨道图
3D轨道图
轨道高度分析图
轨道倾角分析图
轨道综合分析图
查看轨道综合分析图
交会数据列表
事件ID 空间交会对象 最接近时刻(TCA) 交会距离 交会风险概率(CRP) 交会风险指数(CRI) 操作
CDM_260913-014905-765406-926922
2026-09-13T
01:49:48+0000
2.010 km
极远距离
2.779759E-6 低风险 0.44
CDM_260905-212805-765406-596223
2026-09-05T
21:28:18+0000
2.880 km
极远距离
1.258301E-6 低风险 0.37
与全量物体交会距离演化趋势
与全量物体交会风险概率演化趋势